Year,Month,Day,Hour,Minute,Value (Times are PST for temperature in C)
2013,10,10,00,00,9.20
2013,10,10,00,01,9.20
2013,10,10,00,02,9.20
2013,10,10,00,03,9.20
2013,10,10,00,04,9.20
2013,10,10,00,05,9.10
2013,10,10,00,06,9.10
2013,10,10,00,07,9.10
2013,10,10,00,08,9.10
2013,10,10,00,09,9.10
2013,10,10,00,10,9.10
2013,10,10,00,11,9.10
2013,10,10,00,12,9.10
2013,10,10,00,13,9.10
2013,10,10,00,14,9.10
2013,10,10,00,15,9.10
2013,10,10,00,16,9.10
2013,10,10,00,17,9.10
2013,10,10,00,18,9.10
2013,10,10,00,19,9.10
2013,10,10,00,20,9.10
2013,10,10,00,21,9.10
2013,10,10,00,22,9.10
2013,10,10,00,23,9.10
2013,10,10,00,24,9.10
2013,10,10,00,25,9.10
2013,10,10,00,26,9.10
2013,10,10,00,27,9.10
2013,10,10,00,28,9.10
2013,10,10,00,29,9.10
2013,10,10,00,30,9.10
2013,10,10,00,31,9.00
2013,10,10,00,32,9.00
2013,10,10,00,33,9.00
2013,10,10,00,34,9.00
2013,10,10,00,35,9.00
2013,10,10,00,36,9.00
2013,10,10,00,37,9.00
2013,10,10,00,38,8.90
2013,10,10,00,39,8.90
2013,10,10,00,40,8.90
2013,10,10,00,41,8.90
2013,10,10,00,42,8.90
2013,10,10,00,43,8.90
2013,10,10,00,44,8.80
2013,10,10,00,45,8.80
2013,10,10,00,46,8.80
2013,10,10,00,47,8.80
2013,10,10,00,48,8.80
2013,10,10,00,49,8.80
2013,10,10,00,50,8.80
2013,10,10,00,51,8.80
2013,10,10,00,52,8.80
2013,10,10,00,53,8.70
2013,10,10,00,54,8.70
2013,10,10,00,55,8.70
2013,10,10,00,56,8.70
2013,10,10,00,57,8.70
2013,10,10,00,58,8.70
2013,10,10,00,59,8.70
2013,10,10,01,00,8.60
2013,10,10,01,01,8.60
2013,10,10,01,02,8.60
2013,10,10,01,03,8.60
2013,10,10,01,04,8.60
2013,10,10,01,05,8.60
2013,10,10,01,06,8.50
2013,10,10,01,07,8.50
2013,10,10,01,08,8.50
2013,10,10,01,09,8.40
2013,10,10,01,10,8.40
2013,10,10,01,11,8.40
2013,10,10,01,12,8.40
2013,10,10,01,13,8.30
2013,10,10,01,14,8.30
2013,10,10,01,15,8.20
2013,10,10,01,16,8.20
2013,10,10,01,17,8.20
2013,10,10,01,18,8.10
2013,10,10,01,19,8.10
2013,10,10,01,20,8.10
2013,10,10,01,21,8.10
2013,10,10,01,22,8.00
2013,10,10,01,23,8.00
2013,10,10,01,24,7.90
2013,10,10,01,25,7.90
2013,10,10,01,26,7.90
2013,10,10,01,27,7.90
2013,10,10,01,28,7.80
2013,10,10,01,29,7.80
2013,10,10,01,30,7.80
2013,10,10,01,31,7.70
2013,10,10,01,32,7.70
2013,10,10,01,33,7.70
2013,10,10,01,34,7.60
2013,10,10,01,35,7.60
2013,10,10,01,36,7.60
2013,10,10,01,37,7.50
2013,10,10,01,38,7.50
2013,10,10,01,39,7.40
2013,10,10,01,40,7.40
2013,10,10,01,41,7.40
2013,10,10,01,42,7.40
2013,10,10,01,43,7.30
2013,10,10,01,44,7.30
2013,10,10,01,45,7.30
2013,10,10,01,46,7.30
2013,10,10,01,47,7.20
2013,10,10,01,48,7.20
2013,10,10,01,49,7.20
2013,10,10,01,50,7.20
2013,10,10,01,51,7.20
2013,10,10,01,52,7.20
2013,10,10,01,53,7.20
2013,10,10,01,54,7.20
2013,10,10,01,55,7.20
2013,10,10,01,56,7.20
2013,10,10,01,57,7.20
2013,10,10,01,58,7.20
2013,10,10,01,59,7.20
2013,10,10,02,00,7.20
2013,10,10,02,01,7.10
2013,10,10,02,02,7.10
2013,10,10,02,03,7.10
2013,10,10,02,04,7.10
2013,10,10,02,05,7.10
2013,10,10,02,06,7.20
2013,10,10,02,07,7.20
2013,10,10,02,08,7.20
2013,10,10,02,09,7.20
2013,10,10,02,10,7.20
2013,10,10,02,11,7.20
2013,10,10,02,12,7.20
2013,10,10,02,13,7.20
2013,10,10,02,14,7.20
2013,10,10,02,15,7.20
2013,10,10,02,16,7.20
2013,10,10,02,17,7.20
2013,10,10,02,18,7.20
2013,10,10,02,19,7.20
2013,10,10,02,20,7.20
2013,10,10,02,21,7.20
2013,10,10,02,22,7.10
2013,10,10,02,23,7.10
2013,10,10,02,24,7.00
2013,10,10,02,25,7.00
2013,10,10,02,26,6.90
2013,10,10,02,27,6.90
2013,10,10,02,28,6.80
2013,10,10,02,29,6.80
2013,10,10,02,30,6.80
2013,10,10,02,31,6.80
2013,10,10,02,32,6.80
2013,10,10,02,33,6.80
2013,10,10,02,34,6.70
2013,10,10,02,35,6.70
2013,10,10,02,36,6.70
2013,10,10,02,37,6.70
2013,10,10,02,38,6.70
2013,10,10,02,39,6.70
2013,10,10,02,40,6.70
2013,10,10,02,41,6.70
2013,10,10,02,42,6.70
2013,10,10,02,43,6.70
2013,10,10,02,44,6.70
2013,10,10,02,45,6.80
2013,10,10,02,46,6.80
2013,10,10,02,47,6.80
2013,10,10,02,48,6.80
2013,10,10,02,49,6.90
2013,10,10,02,50,6.90
2013,10,10,02,51,6.90
2013,10,10,02,52,7.00
2013,10,10,02,53,7.00
2013,10,10,02,54,7.00
2013,10,10,02,55,7.10
2013,10,10,02,56,7.10
2013,10,10,02,57,7.10
2013,10,10,02,58,7.10
2013,10,10,02,59,7.00
2013,10,10,03,00,7.00
2013,10,10,03,01,7.00
2013,10,10,03,02,7.00
2013,10,10,03,03,7.00
2013,10,10,03,04,7.00
2013,10,10,03,05,7.00
2013,10,10,03,06,7.00
2013,10,10,03,07,7.00
2013,10,10,03,08,7.00
2013,10,10,03,09,7.00
2013,10,10,03,10,7.00
2013,10,10,03,11,7.00
2013,10,10,03,12,7.00
2013,10,10,03,13,7.00
2013,10,10,03,14,7.00
2013,10,10,03,15,7.00
2013,10,10,03,16,7.00
2013,10,10,03,17,7.10
2013,10,10,03,18,7.10
2013,10,10,03,19,7.00
2013,10,10,03,20,7.00
2013,10,10,03,21,7.00
2013,10,10,03,22,7.00
2013,10,10,03,23,7.00
2013,10,10,03,24,6.90
2013,10,10,03,25,6.90
2013,10,10,03,26,6.90
2013,10,10,03,27,6.90
2013,10,10,03,28,6.90
2013,10,10,03,29,6.80
2013,10,10,03,30,6.80
2013,10,10,03,31,6.80
2013,10,10,03,32,6.80
2013,10,10,03,33,6.80
2013,10,10,03,34,6.80
2013,10,10,03,35,6.80
2013,10,10,03,36,6.80
2013,10,10,03,37,6.80
2013,10,10,03,38,6.80
2013,10,10,03,39,6.80
2013,10,10,03,40,6.80
2013,10,10,03,41,6.80
2013,10,10,03,42,6.80
2013,10,10,03,43,6.80
2013,10,10,03,44,6.80
2013,10,10,03,45,6.90
2013,10,10,03,46,6.90
2013,10,10,03,47,6.90
2013,10,10,03,48,6.90
2013,10,10,03,49,6.90
2013,10,10,03,50,6.90
2013,10,10,03,51,6.90
2013,10,10,03,52,6.90
2013,10,10,03,53,7.00
2013,10,10,03,54,7.00
2013,10,10,03,55,7.00
2013,10,10,03,56,7.00
2013,10,10,03,57,7.00
2013,10,10,03,58,7.00
2013,10,10,03,59,7.00
2013,10,10,04,00,7.00
2013,10,10,04,01,7.00
2013,10,10,04,02,7.00
2013,10,10,04,03,7.00
2013,10,10,04,04,7.00
2013,10,10,04,05,7.00
2013,10,10,04,06,7.00
2013,10,10,04,07,7.10
2013,10,10,04,08,7.10
2013,10,10,04,09,7.10
2013,10,10,04,10,7.10
2013,10,10,04,11,7.10
2013,10,10,04,12,7.10
2013,10,10,04,13,7.20
2013,10,10,04,14,7.20
2013,10,10,04,15,7.20
2013,10,10,04,16,7.20
2013,10,10,04,17,7.20
2013,10,10,04,18,7.20
2013,10,10,04,19,7.20
2013,10,10,04,20,7.20
2013,10,10,04,21,7.30
2013,10,10,04,22,7.30
2013,10,10,04,23,7.30
2013,10,10,04,24,7.30
2013,10,10,04,25,7.40
2013,10,10,04,26,7.40
2013,10,10,04,27,7.40
2013,10,10,04,28,7.40
2013,10,10,04,29,7.40
2013,10,10,04,30,7.50
2013,10,10,04,31,7.50
2013,10,10,04,32,7.50
2013,10,10,04,33,7.50
2013,10,10,04,34,7.60
2013,10,10,04,35,7.60
2013,10,10,04,36,7.60
2013,10,10,04,37,7.70
2013,10,10,04,38,7.70
2013,10,10,04,39,7.80
2013,10,10,04,40,7.90
2013,10,10,04,41,8.00
2013,10,10,04,42,8.10
2013,10,10,04,43,8.20
2013,10,10,04,44,8.30
2013,10,10,04,45,8.40
2013,10,10,04,46,8.40
2013,10,10,04,47,8.50
2013,10,10,04,48,8.60
2013,10,10,04,49,8.60
2013,10,10,04,50,8.70
2013,10,10,04,51,8.70
2013,10,10,04,52,8.70
2013,10,10,04,53,8.70
2013,10,10,04,54,8.70
2013,10,10,04,55,8.70
2013,10,10,04,56,8.70
2013,10,10,04,57,8.70
2013,10,10,04,58,8.70
2013,10,10,04,59,8.70
2013,10,10,05,00,8.70
2013,10,10,05,01,8.70
2013,10,10,05,02,8.70
2013,10,10,05,03,8.70
2013,10,10,05,04,8.70
2013,10,10,05,05,8.70
2013,10,10,05,06,8.60
2013,10,10,05,07,8.60
2013,10,10,05,08,8.60
2013,10,10,05,09,8.60
2013,10,10,05,10,8.60
2013,10,10,05,11,8.60
2013,10,10,05,12,8.60
2013,10,10,05,13,8.60
2013,10,10,05,14,8.60
2013,10,10,05,15,8.60
2013,10,10,05,16,8.70
2013,10,10,05,17,8.70
2013,10,10,05,18,8.70
2013,10,10,05,19,8.80
2013,10,10,05,20,8.80
2013,10,10,05,21,8.90
2013,10,10,05,22,8.90
2013,10,10,05,23,8.90
2013,10,10,05,24,8.90
2013,10,10,05,25,9.00
2013,10,10,05,26,9.00
2013,10,10,05,27,9.10
2013,10,10,05,28,9.10
2013,10,10,05,29,9.10
2013,10,10,05,30,9.10
2013,10,10,05,31,9.00
2013,10,10,05,32,9.00
2013,10,10,05,33,9.00
2013,10,10,05,34,9.00
2013,10,10,05,35,9.00
2013,10,10,05,36,9.00
2013,10,10,05,37,9.00
2013,10,10,05,38,9.00
2013,10,10,05,39,9.00
2013,10,10,05,40,9.00
2013,10,10,05,41,9.00
2013,10,10,05,42,9.00
2013,10,10,05,43,9.00
2013,10,10,05,44,9.00
2013,10,10,05,45,9.00
2013,10,10,05,46,9.00
2013,10,10,05,47,9.00
2013,10,10,05,48,9.00
2013,10,10,05,49,9.00
2013,10,10,05,50,8.90
2013,10,10,05,51,8.90
2013,10,10,05,52,8.90
2013,10,10,05,53,8.90
2013,10,10,05,54,8.90
2013,10,10,05,55,8.90
2013,10,10,05,56,8.90
2013,10,10,05,57,8.90
2013,10,10,05,58,8.90
2013,10,10,05,59,8.90
2013,10,10,06,00,9.00
2013,10,10,06,01,9.00
2013,10,10,06,02,9.00
2013,10,10,06,03,8.90
2013,10,10,06,04,9.00
2013,10,10,06,05,8.90
2013,10,10,06,06,8.90
2013,10,10,06,07,8.90
2013,10,10,06,08,8.90
2013,10,10,06,09,8.90
2013,10,10,06,10,8.90
2013,10,10,06,11,9.00
2013,10,10,06,12,9.00
2013,10,10,06,13,9.00
2013,10,10,06,14,9.00
2013,10,10,06,15,9.00
2013,10,10,06,16,9.00
2013,10,10,06,17,9.00
2013,10,10,06,18,9.00
2013,10,10,06,19,9.00
2013,10,10,06,20,9.00
2013,10,10,06,21,9.00
2013,10,10,06,22,9.00
2013,10,10,06,23,9.00
2013,10,10,06,24,9.00
2013,10,10,06,25,9.00
2013,10,10,06,26,9.00
2013,10,10,06,27,9.00
2013,10,10,06,28,9.10
2013,10,10,06,29,9.10
2013,10,10,06,30,9.10
2013,10,10,06,31,9.10
2013,10,10,06,32,9.10
2013,10,10,06,33,9.10
2013,10,10,06,34,9.10
2013,10,10,06,35,9.10
2013,10,10,06,36,9.10
2013,10,10,06,37,9.20
2013,10,10,06,38,9.20
2013,10,10,06,39,9.20
2013,10,10,06,40,9.20
2013,10,10,06,41,9.20
2013,10,10,06,42,9.20
2013,10,10,06,43,9.20
2013,10,10,06,44,9.20
2013,10,10,06,45,9.20
2013,10,10,06,46,9.20
2013,10,10,06,47,9.20
2013,10,10,06,48,9.20
2013,10,10,06,49,9.20
2013,10,10,06,50,9.20
2013,10,10,06,51,9.20
2013,10,10,06,52,9.20
2013,10,10,06,53,9.20
2013,10,10,06,54,9.20
2013,10,10,06,55,9.20
2013,10,10,06,56,9.20
2013,10,10,06,57,9.20
2013,10,10,06,58,9.20
2013,10,10,06,59,9.20
2013,10,10,07,00,9.20
2013,10,10,07,01,9.20
2013,10,10,07,02,9.20
2013,10,10,07,03,9.20
2013,10,10,07,04,9.20
2013,10,10,07,05,9.20
2013,10,10,07,06,9.20
2013,10,10,07,07,9.20
2013,10,10,07,08,9.20
2013,10,10,07,09,9.20
2013,10,10,07,10,9.20
2013,10,10,07,11,9.20
2013,10,10,07,12,9.20
2013,10,10,07,13,9.20
2013,10,10,07,14,9.20
2013,10,10,07,15,9.30
2013,10,10,07,16,9.30
2013,10,10,07,17,9.30
2013,10,10,07,18,9.30
2013,10,10,07,19,9.30
2013,10,10,07,20,9.30
2013,10,10,07,21,9.30
2013,10,10,07,22,9.30
2013,10,10,07,23,9.30
2013,10,10,07,24,9.20
2013,10,10,07,25,9.20
2013,10,10,07,26,9.20
2013,10,10,07,27,9.30
2013,10,10,07,28,9.30
2013,10,10,07,29,9.20
2013,10,10,07,30,9.20
2013,10,10,07,31,9.20
2013,10,10,07,32,9.20
2013,10,10,07,33,9.20
2013,10,10,07,34,9.20
2013,10,10,07,35,9.20
2013,10,10,07,36,9.20
2013,10,10,07,37,9.20
2013,10,10,07,38,9.20
2013,10,10,07,39,9.20
2013,10,10,07,40,9.20
2013,10,10,07,41,9.20
2013,10,10,07,42,9.20
2013,10,10,07,43,9.20
2013,10,10,07,44,9.20
2013,10,10,07,45,9.20
2013,10,10,07,46,9.20
2013,10,10,07,47,9.20
2013,10,10,07,48,9.20
2013,10,10,07,49,9.20
2013,10,10,07,50,9.20
2013,10,10,07,51,9.20
2013,10,10,07,52,9.20
2013,10,10,08,09,9.00
2013,10,10,08,10,9.00
2013,10,10,08,11,9.00
2013,10,10,08,12,9.00
2013,10,10,08,13,9.00
2013,10,10,08,14,9.00
2013,10,10,08,15,9.00
2013,10,10,08,16,9.00
2013,10,10,08,17,9.00
2013,10,10,08,18,9.10
2013,10,10,08,19,9.10
2013,10,10,08,20,9.10
2013,10,10,08,21,9.10
2013,10,10,08,22,9.10
2013,10,10,08,23,9.10
2013,10,10,08,24,9.10
2013,10,10,08,25,9.10
2013,10,10,08,26,9.10
2013,10,10,08,27,9.10
2013,10,10,08,28,9.20
2013,10,10,08,29,9.20
2013,10,10,08,30,9.20
2013,10,10,08,31,9.20
2013,10,10,08,32,9.10
2013,10,10,08,33,9.10
2013,10,10,08,34,9.10
2013,10,10,08,35,9.10
2013,10,10,08,36,9.10
2013,10,10,08,37,9.10
2013,10,10,08,38,9.10
2013,10,10,08,39,9.10
2013,10,10,08,40,9.10
2013,10,10,08,41,9.10
2013,10,10,08,42,9.10
2013,10,10,08,43,9.10
2013,10,10,08,44,9.10
2013,10,10,08,45,9.10
2013,10,10,08,46,9.10
2013,10,10,08,47,9.10
2013,10,10,08,48,9.00
2013,10,10,08,49,9.00
2013,10,10,08,50,9.00
2013,10,10,08,51,9.00
2013,10,10,08,52,8.90
2013,10,10,08,53,8.90
2013,10,10,08,54,8.90
2013,10,10,08,55,8.90
2013,10,10,08,56,8.90
2013,10,10,08,57,8.90
2013,10,10,08,58,8.80
2013,10,10,08,59,8.80
2013,10,10,09,00,8.80
2013,10,10,09,01,8.80
2013,10,10,09,02,8.80
2013,10,10,09,03,8.80
2013,10,10,09,04,8.80
2013,10,10,09,05,8.80
2013,10,10,09,06,8.70
2013,10,10,09,07,8.70
2013,10,10,09,08,8.70
2013,10,10,09,09,8.70
2013,10,10,09,10,8.70
2013,10,10,09,11,8.70
2013,10,10,09,12,8.70
2013,10,10,09,13,8.70
2013,10,10,09,14,8.70
2013,10,10,09,15,8.70
2013,10,10,09,16,8.70
2013,10,10,09,17,8.70
2013,10,10,09,18,8.80
2013,10,10,09,19,8.80
2013,10,10,09,20,8.80
2013,10,10,09,21,8.80
2013,10,10,09,22,8.80
2013,10,10,09,23,8.80
2013,10,10,09,24,8.80
2013,10,10,09,25,8.80
2013,10,10,09,26,8.80
2013,10,10,09,27,8.80
2013,10,10,09,28,8.80
2013,10,10,09,29,8.80
2013,10,10,09,30,8.90
2013,10,10,09,31,8.90
2013,10,10,09,32,8.90
2013,10,10,09,33,8.90
2013,10,10,09,34,8.90
2013,10,10,09,35,9.00
2013,10,10,09,36,9.00
2013,10,10,09,37,9.00
2013,10,10,09,38,9.00
2013,10,10,09,39,9.10
2013,10,10,09,40,9.10
2013,10,10,09,41,9.10
2013,10,10,09,42,9.20
2013,10,10,09,43,9.20
2013,10,10,09,44,9.30
2013,10,10,09,45,9.30
2013,10,10,09,46,9.30
2013,10,10,09,47,9.40
2013,10,10,09,48,9.40
2013,10,10,09,49,9.50
2013,10,10,09,50,9.50
2013,10,10,09,51,9.60
2013,10,10,09,52,9.60
2013,10,10,09,53,9.60
2013,10,10,09,54,9.60
2013,10,10,09,55,9.70
2013,10,10,09,56,9.70
2013,10,10,09,57,9.80
2013,10,10,09,58,9.80
2013,10,10,09,59,9.80
2013,10,10,10,00,9.80
2013,10,10,10,01,9.80
2013,10,10,10,02,9.80
2013,10,10,10,03,9.80
2013,10,10,10,04,9.80
2013,10,10,10,05,9.80
2013,10,10,10,06,9.80
2013,10,10,10,07,9.80
2013,10,10,10,08,9.80
2013,10,10,10,09,9.80
2013,10,10,10,10,9.80
2013,10,10,10,11,9.80
2013,10,10,10,12,9.80
2013,10,10,10,13,9.80
2013,10,10,10,14,9.80
2013,10,10,10,15,9.80
2013,10,10,10,16,9.80
2013,10,10,10,17,9.80
2013,10,10,10,18,9.80
2013,10,10,10,19,9.80
2013,10,10,10,20,9.70
2013,10,10,10,21,9.70
2013,10,10,10,22,9.70
2013,10,10,10,23,9.70
2013,10,10,10,24,9.70
2013,10,10,10,25,9.60
2013,10,10,10,26,9.60
2013,10,10,10,27,9.60
2013,10,10,10,28,9.60
2013,10,10,10,29,9.60
2013,10,10,10,30,9.60
2013,10,10,10,31,9.60
2013,10,10,10,32,9.60
2013,10,10,10,33,9.60
2013,10,10,10,34,9.60
2013,10,10,10,35,9.60
2013,10,10,10,36,9.60
2013,10,10,10,37,9.60
2013,10,10,10,38,9.60
2013,10,10,10,39,9.60
2013,10,10,10,40,9.60
2013,10,10,10,41,9.60
2013,10,10,10,42,9.60
2013,10,10,10,43,9.60
2013,10,10,10,44,9.70
2013,10,10,10,45,9.70
2013,10,10,10,46,9.70
2013,10,10,10,47,9.80
2013,10,10,10,48,9.80
2013,10,10,10,49,9.90
2013,10,10,10,50,10.00
2013,10,10,10,51,10.00
2013,10,10,10,52,10.10
2013,10,10,10,53,10.10
2013,10,10,10,54,10.10
2013,10,10,10,55,10.20
2013,10,10,10,56,10.20
2013,10,10,10,57,10.20
2013,10,10,10,58,10.30
2013,10,10,10,59,10.30
2013,10,10,11,00,10.30
2013,10,10,11,01,10.30
2013,10,10,11,02,10.40
2013,10,10,11,03,10.40
2013,10,10,11,04,10.40
2013,10,10,11,05,10.40
2013,10,10,11,06,10.50
2013,10,10,11,07,10.50
2013,10,10,11,08,10.50
2013,10,10,11,09,10.50
2013,10,10,11,10,10.60
2013,10,10,11,11,10.60
2013,10,10,11,12,10.60
2013,10,10,11,13,10.60
2013,10,10,11,14,10.60
2013,10,10,11,15,10.60
2013,10,10,11,16,10.60
2013,10,10,11,17,10.70
2013,10,10,11,18,10.70
2013,10,10,11,19,10.70
2013,10,10,11,20,10.80
2013,10,10,11,21,10.80
2013,10,10,11,22,10.80
2013,10,10,11,23,10.90
2013,10,10,11,24,10.90
2013,10,10,11,25,10.90
2013,10,10,11,26,11.00
2013,10,10,11,27,11.00
2013,10,10,11,28,11.10
2013,10,10,11,29,11.10
2013,10,10,11,30,11.20
2013,10,10,11,31,11.20
2013,10,10,11,32,11.30
2013,10,10,11,33,11.30
2013,10,10,11,34,11.40
2013,10,10,11,35,11.50
2013,10,10,11,36,11.50
2013,10,10,11,37,11.60
2013,10,10,11,38,11.60
2013,10,10,11,39,11.70
2013,10,10,11,40,11.70
2013,10,10,11,41,11.80
2013,10,10,11,42,11.80
2013,10,10,11,43,11.90
2013,10,10,11,44,11.90
2013,10,10,11,45,11.90
2013,10,10,11,46,12.00
2013,10,10,11,47,12.00
2013,10,10,11,48,12.10
2013,10,10,11,49,12.10
2013,10,10,11,50,12.10
2013,10,10,11,51,12.10
2013,10,10,11,52,12.10
2013,10,10,11,53,12.20
2013,10,10,11,54,12.20
2013,10,10,11,55,12.20
2013,10,10,11,56,12.20
2013,10,10,11,57,12.30
2013,10,10,11,58,12.30
2013,10,10,11,59,12.30
2013,10,10,12,00,12.30
2013,10,10,12,01,12.30
2013,10,10,12,02,12.30
2013,10,10,12,03,12.30
2013,10,10,12,04,12.30
2013,10,10,12,05,12.30
2013,10,10,12,06,12.30
2013,10,10,12,07,12.30
2013,10,10,12,08,12.30
2013,10,10,12,09,12.30
2013,10,10,12,10,12.30
2013,10,10,12,11,12.30
2013,10,10,12,12,12.30
2013,10,10,12,13,12.30
2013,10,10,12,14,12.30
2013,10,10,12,15,12.20
2013,10,10,12,16,12.20
2013,10,10,12,17,12.20
2013,10,10,12,18,12.20
2013,10,10,12,19,12.20
2013,10,10,12,20,12.20
2013,10,10,12,21,12.20
2013,10,10,12,22,12.20
2013,10,10,12,23,12.20
2013,10,10,12,24,12.20
2013,10,10,12,25,12.30
2013,10,10,12,26,12.30
2013,10,10,12,27,12.30
2013,10,10,12,28,12.40
2013,10,10,12,29,12.40
2013,10,10,12,30,12.50
2013,10,10,12,31,12.60
2013,10,10,12,32,12.70
2013,10,10,12,33,12.80
2013,10,10,12,34,12.80
2013,10,10,12,35,12.90
2013,10,10,12,36,12.90
2013,10,10,12,37,12.90
2013,10,10,12,38,12.90
2013,10,10,12,39,12.90
2013,10,10,12,40,12.80
2013,10,10,12,41,12.80
2013,10,10,12,42,12.70
2013,10,10,12,43,12.70
2013,10,10,12,44,12.80
2013,10,10,12,45,12.80
2013,10,10,12,46,12.70
2013,10,10,12,47,12.70
2013,10,10,12,48,12.70
2013,10,10,12,49,12.70
2013,10,10,12,50,12.70
2013,10,10,12,51,12.70
2013,10,10,12,52,12.70
2013,10,10,12,53,12.70
2013,10,10,12,54,12.70
2013,10,10,12,55,12.70
2013,10,10,12,56,12.70
2013,10,10,12,57,12.60
2013,10,10,12,58,12.60
2013,10,10,12,59,12.60
2013,10,10,13,00,12.50
2013,10,10,13,01,12.50
2013,10,10,13,02,12.60
2013,10,10,13,03,12.60
2013,10,10,13,04,12.70
2013,10,10,13,05,12.70
2013,10,10,13,06,12.70
2013,10,10,13,07,12.70
2013,10,10,13,08,12.70
2013,10,10,13,09,12.70
2013,10,10,13,10,12.70
2013,10,10,13,11,12.80
2013,10,10,13,12,12.90
2013,10,10,13,13,12.90
2013,10,10,13,14,12.90
2013,10,10,13,15,12.90
2013,10,10,13,16,12.80
2013,10,10,13,17,12.80
2013,10,10,13,18,12.80
2013,10,10,13,19,12.80
2013,10,10,13,20,12.80
2013,10,10,13,21,12.80
2013,10,10,13,22,12.80
2013,10,10,13,23,12.80
2013,10,10,13,24,12.80
2013,10,10,13,25,12.80
2013,10,10,13,26,12.90
2013,10,10,13,27,12.90
2013,10,10,13,28,13.00
2013,10,10,13,29,13.00
2013,10,10,13,30,13.10
2013,10,10,13,31,13.10
2013,10,10,13,32,13.10
2013,10,10,13,33,13.10
2013,10,10,13,34,13.00
2013,10,10,13,35,13.00
2013,10,10,13,36,13.00
2013,10,10,13,37,13.00
2013,10,10,13,38,13.00
2013,10,10,13,39,13.00
2013,10,10,13,40,13.00
2013,10,10,13,41,12.90
2013,10,10,13,42,12.90
2013,10,10,13,43,12.90
2013,10,10,13,44,12.90
2013,10,10,13,45,12.90
2013,10,10,13,46,12.90
2013,10,10,13,47,12.90
2013,10,10,13,48,13.00
2013,10,10,13,49,13.00
2013,10,10,13,50,13.10
2013,10,10,13,51,13.10
2013,10,10,13,52,13.20
2013,10,10,13,53,13.30
2013,10,10,13,54,13.30
2013,10,10,13,55,13.40
2013,10,10,13,56,13.50
2013,10,10,13,57,13.50
2013,10,10,13,58,13.60
2013,10,10,13,59,13.70
2013,10,10,14,00,13.70
2013,10,10,14,01,13.70
2013,10,10,14,02,13.70
2013,10,10,14,03,13.60
2013,10,10,14,04,13.60
2013,10,10,14,05,13.60
2013,10,10,14,06,13.50
2013,10,10,14,07,13.50
2013,10,10,14,08,13.50
2013,10,10,14,09,13.50
2013,10,10,14,10,13.50
2013,10,10,14,11,13.50
2013,10,10,14,12,13.50
2013,10,10,14,13,13.60
2013,10,10,14,14,13.60
2013,10,10,14,15,13.60
2013,10,10,14,16,13.70
2013,10,10,14,17,13.70
2013,10,10,14,18,13.70
2013,10,10,14,19,13.60
2013,10,10,14,20,13.60
2013,10,10,14,21,13.50
2013,10,10,14,22,13.50
2013,10,10,14,23,13.50
2013,10,10,14,24,13.50
2013,10,10,14,25,13.50
2013,10,10,14,26,13.50
2013,10,10,14,27,13.40
2013,10,10,14,28,13.40
2013,10,10,14,29,13.30
2013,10,10,14,30,13.30
2013,10,10,14,31,13.30
2013,10,10,14,32,13.30
2013,10,10,14,33,13.30
2013,10,10,14,34,13.30
2013,10,10,14,35,13.30
2013,10,10,14,36,13.30
2013,10,10,14,37,13.30
2013,10,10,14,38,13.30
2013,10,10,14,39,13.30
2013,10,10,14,40,13.30
2013,10,10,14,41,13.30
2013,10,10,14,42,13.30
2013,10,10,14,43,13.30
2013,10,10,14,44,13.10
2013,10,10,14,45,13.10
2013,10,10,14,46,13.10
2013,10,10,14,47,13.00
2013,10,10,14,48,12.90
2013,10,10,14,49,12.90
2013,10,10,14,50,12.80
2013,10,10,14,51,12.80
2013,10,10,14,52,12.70
2013,10,10,14,53,12.70
2013,10,10,14,54,12.70
2013,10,10,14,55,12.70
2013,10,10,14,56,12.70
2013,10,10,14,57,12.80
2013,10,10,14,58,12.80
2013,10,10,14,59,12.90
2013,10,10,15,00,12.90
2013,10,10,15,01,12.90
2013,10,10,15,02,12.90
2013,10,10,15,03,12.90
2013,10,10,15,04,12.90
2013,10,10,15,05,12.90
2013,10,10,15,06,12.90
2013,10,10,15,07,12.90
2013,10,10,15,08,12.90
2013,10,10,15,09,12.90
2013,10,10,15,10,12.80
2013,10,10,15,11,12.80
2013,10,10,15,12,12.80
2013,10,10,15,13,12.80
2013,10,10,15,14,12.80
2013,10,10,15,15,12.80
2013,10,10,15,16,12.90
2013,10,10,15,17,12.90
2013,10,10,15,18,12.90
2013,10,10,15,19,12.90
2013,10,10,15,20,13.00
2013,10,10,15,21,12.90
2013,10,10,15,22,12.90
2013,10,10,15,23,12.90
2013,10,10,15,24,12.90
2013,10,10,15,25,12.90
2013,10,10,15,26,12.90
2013,10,10,15,27,13.00
2013,10,10,15,28,13.00
2013,10,10,15,29,13.10
2013,10,10,15,30,13.20
2013,10,10,15,31,13.20
2013,10,10,15,32,13.30
2013,10,10,15,33,13.40
2013,10,10,15,34,13.40
2013,10,10,15,35,13.40
2013,10,10,15,36,13.40
2013,10,10,15,37,13.40
2013,10,10,15,38,13.50
2013,10,10,15,39,13.50
2013,10,10,15,40,13.50
2013,10,10,15,41,13.40
2013,10,10,15,42,13.40
2013,10,10,15,43,13.40
2013,10,10,15,44,13.40
2013,10,10,15,45,13.40
2013,10,10,15,46,13.40
2013,10,10,15,47,13.30
2013,10,10,15,48,13.30
2013,10,10,15,49,13.30
2013,10,10,15,50,13.20
2013,10,10,15,51,13.20
2013,10,10,15,52,13.10
2013,10,10,15,53,13.10
2013,10,10,15,54,13.00
2013,10,10,15,55,13.00
2013,10,10,15,56,13.00
2013,10,10,15,57,13.00
2013,10,10,15,58,13.00
2013,10,10,15,59,13.00
2013,10,10,16,00,13.10
2013,10,10,16,01,13.10
2013,10,10,16,02,13.10
2013,10,10,16,03,13.00
2013,10,10,16,04,13.00
2013,10,10,16,05,13.00
2013,10,10,16,06,13.00
2013,10,10,16,07,13.00
2013,10,10,16,08,12.90
2013,10,10,16,09,12.80
2013,10,10,16,10,12.80
2013,10,10,16,11,12.70
2013,10,10,16,12,12.70
2013,10,10,16,13,12.70
2013,10,10,16,14,12.60
2013,10,10,16,15,12.60
2013,10,10,16,16,12.60
2013,10,10,16,17,12.60
2013,10,10,16,18,12.50
2013,10,10,16,19,12.50
2013,10,10,16,20,12.50
2013,10,10,16,21,12.50
2013,10,10,16,22,12.50
2013,10,10,16,23,12.60
2013,10,10,16,24,12.60
2013,10,10,16,25,12.60
2013,10,10,16,26,12.60
2013,10,10,16,27,12.60
2013,10,10,16,28,12.60
2013,10,10,16,29,12.60
2013,10,10,16,30,12.50
2013,10,10,16,31,12.60
2013,10,10,16,32,12.60
2013,10,10,16,33,12.60
2013,10,10,16,34,12.50
2013,10,10,16,35,12.50
2013,10,10,16,36,12.50
2013,10,10,16,37,12.50
2013,10,10,16,38,12.40
2013,10,10,16,39,12.40
2013,10,10,16,40,12.40
2013,10,10,16,41,12.40
2013,10,10,16,42,12.40
2013,10,10,16,43,12.40
2013,10,10,16,44,12.30
2013,10,10,16,45,12.30
2013,10,10,16,46,12.30
2013,10,10,16,47,12.30
2013,10,10,16,48,12.30
2013,10,10,16,49,12.30
2013,10,10,16,50,12.30
2013,10,10,16,51,12.30
2013,10,10,16,52,12.30
2013,10,10,16,53,12.30
2013,10,10,16,54,12.30
2013,10,10,16,55,12.20
2013,10,10,16,56,12.20
2013,10,10,16,57,12.20
2013,10,10,16,58,12.20
2013,10,10,16,59,12.20
2013,10,10,17,00,12.20
2013,10,10,17,01,12.20
2013,10,10,17,02,12.20
2013,10,10,17,03,12.20
2013,10,10,17,04,12.20
2013,10,10,17,05,12.20
2013,10,10,17,06,12.20
2013,10,10,17,07,12.20
2013,10,10,17,08,12.20
2013,10,10,17,09,12.20
2013,10,10,17,10,12.20
2013,10,10,17,11,12.20
2013,10,10,17,12,12.20
2013,10,10,17,13,12.30
2013,10,10,17,14,12.30
2013,10,10,17,15,12.30
2013,10,10,17,16,12.30
2013,10,10,17,17,12.30
2013,10,10,17,18,12.30
2013,10,10,17,19,12.40
2013,10,10,17,20,12.40
2013,10,10,17,21,12.40
2013,10,10,17,22,12.40
2013,10,10,17,23,12.40
2013,10,10,17,24,12.30
2013,10,10,17,25,12.30
2013,10,10,17,26,12.30
2013,10,10,17,27,12.30
2013,10,10,17,28,12.30
2013,10,10,17,29,12.30
2013,10,10,17,30,12.30
2013,10,10,17,31,12.30
2013,10,10,17,32,12.20
2013,10,10,17,33,12.20
2013,10,10,17,34,12.20
2013,10,10,17,35,12.20
2013,10,10,17,36,12.10
2013,10,10,17,37,12.10
2013,10,10,17,38,12.10
2013,10,10,17,39,12.10
2013,10,10,17,40,12.10
2013,10,10,17,41,12.10
2013,10,10,17,42,12.00
2013,10,10,17,43,12.00
2013,10,10,17,44,12.00
2013,10,10,17,45,12.00
2013,10,10,17,46,12.00
2013,10,10,17,47,11.90
2013,10,10,17,48,11.90
2013,10,10,17,49,11.90
2013,10,10,17,50,11.90
2013,10,10,17,51,11.80
2013,10,10,17,52,11.80
2013,10,10,17,53,11.80
2013,10,10,17,54,11.70
2013,10,10,17,55,11.70
2013,10,10,17,56,11.60
2013,10,10,17,57,11.60
2013,10,10,17,58,11.60
2013,10,10,17,59,11.50
2013,10,10,18,00,11.40
2013,10,10,18,01,11.40
2013,10,10,18,02,11.30
2013,10,10,18,03,11.30